Morgantown, WV

12:34 PM EST on February 23, 2018 (GMT -0500)
Morgantown Municipal-Hart

Weather History for KMGW - February, 2013

Change the Weather History Date:

Thursday, February 21, 2013

  Actual Average Record
Temperature  
Mean Temperature 24 °F 35 °F  
Max Temperature 27 °F 44 °F 75 °F (2018)
Min Temperature 20 °F 26 °F -8 °F (1968)
Degree Days  
Heating Degree Days 41 30  
Month to date heating degree days 725 662  
Since 1 July heating degree days 3509 3689  
Cooling Degree Days 0 0  
Month to date cooling degree days 0 0  
Year to date cooling degree days 0 0  
Moisture  
Dew Point 13 °F    
Average Humidity 67    
Maximum Humidity 77    
Minimum Humidity 57    
Precipitation  
Precipitation T in 0.09 in 1.00 in (1897)
Month to date precipitation 0.52 1.91  
Year to date precipitation 3.66 4.72  
Sea Level Pressure  
Sea Level Pressure 30.29 in    
Wind  
Wind Speed 5 mph (WNW)    
Max Wind Speed 9 mph    
Max Gust Speed 14 mph    
Visibility 9 miles    
Events Snow    
T = Trace of Precipitation, MM = Missing Value Source: NWS Daily Summary

Daily Weather History Graph

Daily Weather History Graph

Search for Another Location

Airport or City:

Trip Planner

Search our weather history database for the weather conditions in past years. The results will help you decide how hot, cold, wet, or windy it might be!

Date:

Astronomy

Feb. 21, 2013 Rise Set
Actual Time 7:03 AM EST 6:03 PM EST
Civil Twilight 6:36 AM EST 6:30 PM EST
Nautical Twilight 6:05 AM EST 7:01 PM EST
Astronomical Twilight 5:34 AM EST 7:33 PM EST
Moon 2:17 PM EST (2/21) 4:06 AM EST (2/21)
Length of Visible Light 11h 54m
Length of Day
10h 59m
Waxing Gibbous, 83% of the Moon is Illuminated
Feb 21
Waxing Gibbous
Feb 25
Full
Mar 4
Last Quarter
Mar 11
New
Mar 19
First Quarter

Hourly Weather History & Observations

Time (EST) Temp. Windchill Dew Point Humidity Pressure Visibility Wind Dir Wind Speed Gust Speed Precip Events Conditions
12:53 AM 19.9 °F 13.4 °F 10.0 °F 65% 30.24 in 10.0 mi Variable 4.6 mph - N/A   Overcast
1:53 AM 19.9 °F 13.4 °F 10.0 °F 65% 30.25 in 10.0 mi SW 4.6 mph - N/A   Overcast
2:53 AM 19.9 °F 13.4 °F 10.9 °F 68% 30.24 in 10.0 mi WSW 4.6 mph - N/A   Overcast
3:53 AM 19.9 °F 12.1 °F 12.0 °F 71% 30.25 in 9.0 mi WSW 5.8 mph - N/A   Overcast
4:53 AM 19.9 °F 14.9 °F 12.0 °F 71% 30.25 in 10.0 mi West 3.5 mph - N/A   Overcast
6:21 AM 19.4 °F 12.8 °F 12.2 °F 74% 30.22 in 8.0 mi Variable 4.6 mph - N/A   Overcast
6:53 AM 19.9 °F 11.1 °F 14.0 °F 78% 30.29 in 7.0 mi West 6.9 mph - N/A   Overcast
7:30 AM 19.4 °F 11.5 °F 14.0 °F 80% 30.24 in 2.5 mi West 5.8 mph - 0.00 in Snow Light Snow
7:41 AM 19.4 °F 11.5 °F 14.0 °F 80% 30.25 in 3.0 mi West 5.8 mph - 0.00 in   Haze
7:53 AM 19.9 °F 12.1 °F 14.0 °F 78% 30.31 in 6.0 mi WNW 5.8 mph - 0.00 in   Haze
8:53 AM 21.0 °F 13.4 °F 10.9 °F 65% 30.32 in 10.0 mi WNW 5.8 mph - N/A   Overcast
9:05 AM 21.2 °F 12.6 °F 10.4 °F 63% 30.27 in 10.0 mi West 6.9 mph - N/A   Overcast
9:53 AM 21.9 °F 13.4 °F 10.9 °F 63% 30.34 in 9.0 mi Variable 6.9 mph - N/A   Overcast
10:53 AM 23.0 °F 15.8 °F 12.0 °F 63% 30.34 in 10.0 mi West 5.8 mph - N/A   Overcast
11:53 AM 24.1 °F 18.2 °F 12.9 °F 62% 30.34 in 10.0 mi West 4.6 mph - N/A   Overcast
12:53 PM 25.0 °F 20.7 °F 14.0 °F 63% 30.32 in 10.0 mi Variable 3.5 mph - N/A   Overcast
1:53 PM 26.1 °F 21.9 °F 14.0 °F 60% 30.31 in 10.0 mi Variable 3.5 mph - N/A   Overcast
2:53 PM 26.1 °F 20.5 °F 15.1 °F 63% 30.30 in 10.0 mi Variable 4.6 mph - N/A   Overcast
3:53 PM 26.1 °F 18.4 °F 16.0 °F 66% 30.29 in 10.0 mi North 6.9 mph - N/A   Overcast
4:53 PM 26.1 °F 21.9 °F 16.0 °F 66% 30.32 in 10.0 mi Variable 3.5 mph - N/A   Overcast
5:53 PM 25.0 °F - 15.1 °F 66% 30.34 in 10.0 mi Calm Calm - N/A   Overcast
6:53 PM 24.1 °F 19.7 °F 15.1 °F 69% 30.35 in 10.0 mi NE 3.5 mph - N/A   Overcast
7:15 PM 23.0 °F - 15.8 °F 74% 30.29 in 10.0 mi Calm Calm - N/A   Scattered Clouds
7:53 PM 23.0 °F 15.8 °F 15.1 °F 72% 30.36 in 10.0 mi NE 5.8 mph - N/A   Clear
8:53 PM 21.9 °F 13.4 °F 16.0 °F 78% 30.33 in 10.0 mi NE 6.9 mph - N/A   Clear
10:53 PM 21.9 °F 13.4 °F 16.0 °F 78% 30.26 in 10.0 mi North 6.9 mph - N/A   Clear
11:53 PM 23.0 °F 18.4 °F 15.1 °F 72% 30.27 in 10.0 mi NNW 3.5 mph - N/A   Clear